Location: Bothwell
(42.3833°S, 147.0000°E)
Time: 03:44:53
(UTC+11:00)

MOZHAYETS 4 - Pass Details

Date: 27 September 2022
Orbit: 659 x 678 km, 98.2° (Epoch: 30 November)

Event Time Altitude Azimuth Distance (km) Brightness Sun altitude
Rises 03:06:55 0° 161° (SSE) 3,037 11.8 -29.8°
Reaches altitude 10° 03:09:15 10° 154° (SSE) 2,118 11.0 -29.4°
Maximum altitude 03:13:42 46° 81° (E) 913 8.6 -28.7°
Enters shadow 03:13:50 45° 75° (ENE) 914 8.6 -28.7°
